This demonstration page uses our WeatherBlox Daily Observations layout. Learn more.

Left ArrowRight Arrow

47.50024, -111.30081

Hourly Observations for October 10, 2019

Temp ( °F °C ) Dew Point ( °F °C ) Humidity (%) Winds ( mph kmh ) Pressure ( in mb ) Visibility ( mi km ) Precip ( " mm )
12:53 am 00:53 Clear 13 -10.6 9 -12.8 84 84 SW 6 9 30.57 1035 10 16 0.00 0.00
1:22 am 01:22 Mostly Clear with Mist and Fog 10 -12.2 7 -13.9 87 87 NNW 6 9 30.67 1039 2 3 0.00 0.00
1:24 am 01:24 Mostly Cloudy with Mist and Fog 9 -12.8 7 -13.9 92 92 NNW 6 9 30.68 1039 1 2 0.00 0.00
1:27 am 01:27 Clear 8 -13.3 6 -14.4 92 92 NW 5 7 30.69 1039 10 16 0.00 0.00
1:53 am 01:53 Clear 11 -11.7 8 -13.3 88 88 NW 5 7 30.57 1035 10 16 0.00 0.00
2:53 am 02:53 Clear 12 -11.1 8 -13.3 84 84 Calm 30.56 1035 10 16 0.00 0.00
3:28 am 03:28 Mostly Cloudy with Haze 10 -12.2 5 -15 80 80 Calm 30.67 1039 0 0 0.00 0.00
3:38 am 03:38 Mostly Cloudy with Haze 11 -11.7 6 -14.4 81 81 Calm 30.65 1038 1 2 0.00 0.00
3:40 am 03:40 Hazy 11 -11.7 6 -14.4 81 81 Calm 30.65 1038 3 5 0.00 0.00
3:53 am 03:53 Mostly Clear 11 -11.7 6 -14.4 81 81 Calm 30.56 1035 10 16 0.00 0.00
4:37 am 04:37 Hazy 11 -11.7 6 -14.4 81 81 ESE 5 7 30.65 1038 2 3 0.00 0.00
4:41 am 04:41 Clear with Mist and Fog 11 -11.7 7 -13.9 84 84 SE 3 6 30.65 1038 1 1 0.00 0.00
4:49 am 04:49 Mostly Cloudy with Freezing Fog 10 -12 7 -14 85 85 SSE 3 6 30.66 1038 0 0 0.00 0.00
4:53 am 04:53 Mostly Cloudy with Freezing Fog 10 -12.2 6 -14.4 84 84 Calm 30.57 1035 1 1 0.00 0.00
4:59 am 04:59 Hazy 10 -12.2 5 -15 80 80 SSE 3 6 30.67 1039 2 2 0.00 0.00
5:04 am 05:04 Mostly Cloudy with Haze 10 -12.2 5 -15 80 80 SE 3 6 30.67 1039 1 2 0.00 0.00
5:12 am 05:12 Mostly Cloudy with Haze 12 -11.1 7 -13.9 80 80 Calm 30.65 1038 0 0 0.00 0.00
5:30 am 05:30 Mostly Cloudy with Haze 9 -12.8 4 -15.6 80 80 ESE 3 6 30.68 1039 1 2 0.00 0.00
5:32 am 05:32 Hazy 10 -12.2 4 -15.6 76 76 ESE 3 6 30.67 1039 2 2 0.00 0.00
5:34 am 05:34 Hazy 10 -12.2 4 -15.6 76 76 SE 3 6 30.67 1039 3 5 0.00 0.00
5:46 am 05:46 Clear with Mist and Fog 10 -12.2 6 -14.4 84 84 Calm 30.67 1039 2 3 0.00 0.00
5:53 am 05:53 Clear with Mist and Fog 12 -11.1 8 -13.3 84 84 Calm 30.56 1035 5 8 0.00 0.00
6:07 am 06:07 Hazy 10 -12.2 5 -15 80 80 Calm 30.67 1039 3 4 0.00 0.00
6:16 am 06:16 Clear with Mist and Fog 11 -11.7 7 -13.9 84 84 Calm 30.66 1038 5 8 0.00 0.00
6:29 am 06:29 Hazy 10 -12.2 5 -15 80 80 Calm 30.67 1039 2 3 0.00 0.00
6:39 am 06:39 Clear with Mist and Fog 7 -13.9 3 -16.1 84 84 Calm 30.70 1039 1 2 0.00 0.00
6:44 am 06:44 Mostly Cloudy with Freezing Fog 7 -13.9 3 -16.1 84 84 Calm 30.70 1039 1 1 0.00 0.00
6:48 am 06:48 Mostly Cloudy with Freezing Fog 3 -16 0 -18 85 85 undefined N/A 30.73 1041 0 0 0.00 0.00
6:53 am 06:53 Mostly Cloudy with Freezing Fog 2 -16.7 -2 -18.9 83 83 WSW 6 9 30.60 1036 0 0 0.00 0.00
7:30 am 07:30 Mostly Cloudy with Freezing Fog 2 -16.7 -2 -18.9 83 83 NW 5 7 30.74 1041 1 1 0.00 0.00
7:48 am 07:48 Mostly Cloudy with Freezing Fog 1 -17 0 -18 92 92 Calm 30.75 1041 0 0 0.00 0.00
7:53 am 07:53 Mostly Cloudy with Freezing Fog 3 -16.1 0 -17.8 87 87 Calm 30.60 1036 0 0 0.00 0.00
8:33 am 08:33 Mostly Cloudy with Freezing Fog 6 -14.4 3 -16.1 87 87 SW 3 6 30.71 1040 1 1 0.00 0.00
8:53 am 08:53 Hazy 9 -12.8 4 -15.6 80 80 WSW 3 6 30.60 1036 4 6 0.00 0.00
9:53 am 09:53 Sunny 11 -11.7 8 -13.3 88 88 SW 5 7 30.60 1036 10 16 0.00 0.00
10:53 am 10:53 Sunny 15 -9.4 11 -11.7 84 84 SW 7 11 30.58 1036 10 16 0.00 0.00
11:53 am 11:53 Sunny 19 -7.2 12 -11.1 74 74 SW 8 13 30.57 1035 10 16 0.00 0.00
12:53 pm 12:53 Sunny 22 -5.6 14 -10 71 71 SW 9 15 30.56 1035 10 16 0.00 0.00
1:53 pm 13:53 Sunny 24 -4.4 15 -9.4 68 68 SW 8 13 30.54 1034 10 16 0.00 0.00
2:53 pm 14:53 Sunny 27 -2.8 16 -8.9 63 63 SSW 7 11 30.52 1034 10 16 0.00 0.00
3:53 pm 15:53 Sunny 28 -2.2 18 -7.8 66 66 SSW 7 11 30.51 1033 10 16 0.00 0.00
4:53 pm 16:53 Sunny 27 -2.8 18 -7.8 69 69 SSW 7 11 30.51 1033 10 16 0.00 0.00
5:53 pm 17:53 Sunny 27 -2.8 16 -8.9 63 63 WSW 5 7 30.51 1033 10 16 0.00 0.00
6:53 pm 18:53 Clear 17 -8.3 11 -11.7 77 77 SSW 7 11 30.56 1035 10 16 0.00 0.00
7:53 pm 19:53 Clear 16 -8.9 9 -12.8 74 74 SSW 7 11 30.56 1035 10 16 0.00 0.00
8:53 pm 20:53 Clear 17 -8.3 10 -12.2 74 74 SSW 5 7 30.55 1034 10 16 0.00 0.00
9:53 pm 21:53 Clear 13 -10.6 9 -12.8 84 84 SW 6 9 30.56 1035 10 16 0.00 0.00
10:53 pm 22:53 Clear 17 -8.3 11 -11.7 77 77 S 3 6 30.54 1034 10 16 0.00 0.00
11:53 pm 23:53 Clear 15 -9.4 9 -12.8 77 77 SSW 9 15 30.53 1034 10 16 0.00 0.00

Powered by AerisWeather